Tracking 35237 objects as of 5-Sep-2026
HD Live streaming from Space Station
objects crossing your sky now

TITAN 3C TRANSTAGE DEB


TITAN 3C TRANSTAGE DEB is no longer on orbit


NORAD ID: 3383
Int'l Code: 1965-082MV
Launch date: October 15, 1965
Source: United States (US)
Launch site: AIR FORCE EASTERN TEST RANGE (AFETR)
Decay date: 1991-10-29

Note: This is SATELLITE DEBRIS
Your satellite tracking list
Your tracking list is empty




NASA's NSSDC Master Catalog

Two Line Element Set (TLE):
1 03383U 65082 MV 91301.74358007  .07299727 -21000-5 +70717-2 0  9992
2 03383 031.9349 095.1223 0004684 351.8629 008.1747 16.10415769384895
Source of the keplerian elements: AFSPC